Погода Гулбене

Погода Гулбене : погода сейчас, прогноз погоды и архив. Всё, что Вы хотите узнать о погоде Гулбене!

Поиск расширенной информации на нашем сайте:

Другие новости

Новости СМИ2

Главная страница сайта

Новости сайта

03.07.2017

Напоминаем, что на нашем специализированном сайте Метеоцентр.Азия вы можете получить высокодетализированные автоматические прогнозы погоды по пунктам России, СНГ и мира в авиационном формате (включающие направление и скорость ветра, видимость, явления погоды, количество и форму облачности, нижнюю и верхнюю границу облачности).


Погода Гулбене - сегодня

Время (UTC), дата Ветер
(°,м/с) 
Видим.   Явления Облачность Т
(°С)
Тd
(°С)
f(%) Тe
(°С)
Pmin
(гПа)
dP
(гПа)
Po
(мм)
O2
(г/м3)
Тmin Tmax R s Состояние
почвы
12 07.02.18 200 (Ю) 4-9  н/о    н/о 
-3.6 -6.3 82 -7  1019.5  1.1  751  307           
15 07.02.18 190 (Ю) 4-8  н/о    н/о 
-3.8 -6.9 79 -7  1020.9  1.4  752  308           
21 07.02.18 160 (Ю) 2-3  н/о    н/о 
-8.8 -11.3 82 -10  1023.8  1.2  754  315           
00 08.02.18 130 (ЮВ) 1-2  н/о    н/о 
-11.8 -13.1 90 -12  1024.3  0.2  754  319           
03 08.02.18 120 (ЮВ) 1-2  н/о    н/о 
-11.9 -13 92 -12  1024.5  0.2  754  319           
06 08.02.18 120 (ЮВ) 1-3  н/о    н/о 
-9.8 -11.3 89 -10  1023.7  -0.6  754  316           
09 08.02.18 140 (ЮВ) 3-4  н/о    н/о 
-7.7 -9.9 84 -10  1023.5  0.1  754  314           
15 08.02.18 070 (В) 2-2  н/о    н/о 
-6.2 -8.1 86 -8  1022.2  -0.5  753  311           
18 08.02.18 060 (СВ) 2-2  н/о    н/о 
-6.5 -7.4 93 -8  1021.9  -0.3  753  311           
21 08.02.18 340 (С) 1-2  н/о    н/о 
-6.5 -7.1 95 -6  1021.9  753  311           
00 09.02.18 320 (СЗ) 1-1  н/о    н/о 
-6.3 -6.9 95 -6  1022.1  0.2  753  311           
03 09.02.18 340 (С) 1-2  н/о    н/о 
-6.7 -7.4 95 -6  1022  -0.1  753  312           
06 09.02.18 350 (С) 1-2  н/о    н/о 
-7.1 -7.8 95 -7  1022.4  0.4  753  312           
09 09.02.18 тихо () -1  н/о    н/о 
-7.2 -7.9 95 -7  1022.9  0.5  753  313           
12 09.02.18 020 (С) 1-2  н/о    н/о 
-7.4 -8.1 95 -7  1022.8  -0.1  753  313           
15 09.02.18 350 (С) 1-1  н/о    н/о 
-7.4 -8.2 94 -7  1022.8  0.1  753  313           
18 09.02.18 010 (С) 1-2  н/о    н/о 
-7.1 -7.9 94 -7  1022.7  -0.1  753  312           
09 22.02.18 тихо () -0  н/о    н/о 
-15.8 -17.5 87 -16  1032.7  0.6  760  327           
21 23.04.18 110 (В) 2-3  н/о    н/о 
+7.1 +0.7 64 +7  1009.8  -1.5  744  292           
06 25.04.18 230 (ЮЗ) 4-7  н/о    н/о 
+8.1 +4.5 78 +7  1001.5  0.6  738  288           
18 29.04.18 310 (СЗ) 1-1  н/о    н/о 
+15.3 +4.2 47 +17  1011.6  -0.2  746  284           
21 06.05.18 340 (С) 1-1  н/о    н/о 
+15.1 +3.4 45 +16  1024.2  -0.2  755  288           
15 21.05.18 080 (В) 3-6  н/о    н/о 
+21.5 +5.9 36 +22  1026.2  -1.6  757  282           
15 06.06.18 270 (З) 2-5  н/о    н/о 
+11.9 +1.6 49 +12  1018.2  0.6  751  290           
15 14.06.18 230 (ЮЗ) 2-3  н/о    н/о 
+22.3 +7.1 37 +22  1012  -0.3  747  277           
Время (UTC), дата Ветер
(°,м/с) 
Видим.   Явления Облачность Т
(°С)
Тd
(°С)
f(%) Тe
(°С)
Pmin
(гПа)
dP
(гПа)
Po
(мм)
O2
(г/м3)
Тmin Tmax R s Состояние
почвы

Для получения пояснительной информации подведите курсор к названию столбца.

ПОГОДА Гулбене - архив

Всё, что Вы хотите узнать о погоде Гулбене - удобно и подробно!

Выберите нужную дату (начиная с 1 января 2015* года) и нажмите кнопку "Найти".
Будут отображены архивные сводки погоды по пункту Гулбене, начиная с указанной даты.


Отображать данные в формате CSV (для использования в таблицах Excel)


Внимание! Наш архив погоды предназначен исключительно для личного некоммерческого использования в познавательных целях. Если Вам необходимы официальные справки о состоянии погоды (для производственных, юридических, коммерческих и т.п. целей), обращайтесь в органы Росгидромета.

*Примечание: данная дата относится к архиву по метеостанциям СССР (Россия, СНГ, Балтия).
Архив по метеостанциям Зарубежной Европы и Азии (кроме Китая) хранится 10 дней, по другим регионам земного шара (Китай, Африка, Америка, Австралия, Океания) - 1 день.

Гулбене - район местоположения метеостанции


Название, широта, долгота, высота метеостанции:
Гулбене 57.1°ш. 26.7°д. 143 м над ур. моря [Латвия]

Дополнительная информация

В oтличие oт бoльшинства пoгoдных сайтoв мы публикуем пoдрoбную метеoинфoрмацию в детальнoм прoфессиoнальнoм фoрмате.

Характеристики температуры и влажнoсти вoздуха измеряются на высoте 2 м в тени вдали oт зданий и деревьев.
Скoрoсть ветра измеряется на высoте 10 м (на урoвне рoста челoвека скoрoсть ветра ниже в 1.5-2 раза). Если метеoстанция нахoдится в гoрoде или в лесу, тo скoрoсть ветра занижена на 2-4 м/с пo сравнению с oткрытым местoм. Скoрoсть ветра над акватoриями крупных рек и oзёр, а также на вершинах хoлмoв на 2-5 м/с выше, чем в oбычных услoвиях.
Атмoсфернoе давление в разных тoчках местнoсти мoжет значительнo oтличаться oт давления на метеoстанции, в зависимoсти oт услoвий рельефа (при пoдъёме на 10 м давление пoнижается примернo на 1 мм рт.ст.).